[[{"header":{"parameterUnit":"m.s-1","parameterCategory":2,"la1":30.2991,"la2":30.254,"lo1":-89.0895,"lo2":-89.0444,"dy":0.0017,"dx":0.0017,"nx":28,"ny":28,"refTime":"2024-06-25T03:00:00:Z","depth":"0","parameterNumber":2,"parameterNumberName":"U-component_of_CURRENTS"},"data":[0,0,0,0,0,0,0,0,0,0,0,0,0,0,0,0,0,0,0,0,0,0,0,0,0,0,0,0,0,0,0,0,0,0,0,0,0,0,0,0,0,0,0,0,0,0,0,0,0,0,0,0,0,0,0,0,0,0,-0.1841,-0.1841,0,-0.185,-0.185,-0.185,-0.1824,-0.1823,-0.1822,-0.1821,-0.1828,-0.1829,-0.183,0,0,0,0,0,0,0,0,0,0,0,0,0,-0.1838,-0.1838,-0.1841,-0.1841,-0.1841,-0.185,-0.185,-0.185,-0.1824,-0.1823,-0.1822,-0.1821,-0.1828,-0.1829,-0.183,0,0,0,0,0,0,0,0,0,0,0,0,0,-0.1842,-0.1838,-0.1841,-0.183,-0.1829,-0.185,-0.185,-0.185,-0.1824,-0.1823,-0.1822,-0.1821,-0.1828,-0.1829,-0.183,-0.186,0,0,-0.1834,-0.1835,0,0,0,0,0,0,0,0,-0.1842,-0.1842,-0.1831,-0.1831,-0.183,-0.1836,-0.1852,-0.1854,-0.1824,-0.1825,-0.1821,-0.182,-0.1832,-0.1833,-0.1836,-0.1861,-0.1861,-0.1834,-0.1835,-0.1836,-0.1836,0,0,0,0,0,0,0,-0.1841,-0.1841,-0.1843,-0.1831,-0.1831,-0.1838,-0.1837,-0.1853,-0.1834,-0.1825,-0.1823,-0.1826,-0.1831,-0.1834,-0.1836,-0.1861,-0.1834,-0.1835,-0.1836,-0.1837,-0.1892,-0.1892,0,0,0,0,0,0,-0.1841,-0.1841,-0.1843,-0.1844,-0.1834,-0.1839,-0.1837,-0.1834,-0.1833,-0.1833,-0.1827,-0.1825,-0.1833,-0.1834,-0.1836,-0.185,-0.1836,-0.1837,-0.1838,-0.1891,-0.1892,-0.1893,0,0,0,0,0,0,-0.1841,-0.1841,-0.1843,-0.1844,-0.1845,-0.184,-0.1836,-0.1835,-0.1839,-0.1835,-0.1834,-0.1833,-0.1832,-0.1834,-0.1857,-0.1851,-0.1837,-0.1839,-0.189,-0.1891,-0.1892,-0.1893,0,0,0,0,0,0,-0.1841,-0.1841,-0.1841,-0.1844,-0.1845,-0.186,-0.1837,-0.1836,-0.1843,-0.184,-0.184,-0.1839,-0.1831,-0.1855,-0.1858,-0.1852,-0.184,-0.1889,-0.1891,-0.1892,-0.1892,-0.1893,-0.1895,0,0,0,0,0,-0.1841,-0.1847,-0.1841,-0.1841,-0.1844,-0.1861,-0.1863,-0.1855,-0.1844,-0.1853,-0.1854,-0.1839,-0.1864,-0.1857,-0.1861,-0.1855,-0.1889,-0.189,-0.1892,-0.1891,-0.1893,-0.1895,0,0,0,0,0,0,-0.1854,-0.1845,-0.1838,-0.1843,-0.1853,-0.1857,-0.1865,-0.1862,-0.1871,-0.1866,-0.1859,-0.186,-0.1876,-0.1875,-0.1867,-0.1876,-0.187,-0.1873,-0.1868,-0.1871,-0.1872,-0.189,-0.1841,0,0,0,0,0,-0.1856,-0.1847,-0.1855,-0.1857,-0.1866,-0.1868,-0.1874,-0.187,-0.1877,-0.1879,-0.1875,-0.1876,-0.1887,-0.1886,-0.1896,-0.1909,-0.1922,-0.1905,-0.1907,-0.1908,-0.1926,-0.1947,-0.1952,-0.1898,-0.1898,-0.1898,0,0,-0.1858,-0.1854,-0.1848,-0.1858,-0.1864,-0.1875,-0.1869,-0.1882,-0.1885,-0.1881,-0.1884,-0.189,-0.1896,-0.1904,-0.1909,-0.1899,-0.1929,-0.191,-0.1911,-0.1929,-0.1949,-0.1955,-0.1959,-0.1899,-0.1899,-0.1898,0,0,-0.1862,-0.1862,-0.1858,-0.1868,-0.188,-0.1885,-0.1892,-0.1899,-0.1898,-0.1914,-0.1906,-0.1923,-0.1926,-0.193,-0.1933,-0.1958,-0.1945,-0.1942,-0.1955,-0.1974,-0.1979,-0.1983,-0.1997,-0.2002,-0.1933,-0.1933,-0.1933,0,-0.1868,-0.1857,-0.1865,-0.1872,-0.1877,-0.189,-0.1898,-0.1908,-0.1917,-0.192,-0.1916,-0.1937,-0.1944,-0.1959,-0.1963,-0.1963,-0.1964,-0.1942,-0.1976,-0.1981,-0.1985,-0.1998,-0.2004,-0.1933,-0.1933,-0.1933,-0.1933,0,-0.1867,-0.1863,-0.1869,-0.187,-0.1887,-0.1895,-0.1914,-0.1925,-0.1927,-0.1929,-0.195,-0.1969,-0.1979,-0.1976,-0.1979,-0.2003,-0.199,-0.1981,-0.1969,-0.1991,-0.2002,-0.2009,-0.1933,-0.1933,-0.1933,-0.1933,0,0,-0.1869,-0.1864,-0.1865,-0.1861,-0.1882,-0.1895,-0.1914,-0.1931,-0.1938,-0.1953,-0.1965,-0.1994,-0.2001,-0.2008,-0.2008,-0.2026,-0.2059,-0.2013,-0.2013,-0.2023,-0.2091,-0.2104,-0.2112,-0.2042,-0.2044,-0.2045,-0.2083,0,-0.1864,-0.1854,-0.1863,-0.1866,-0.1868,-0.1891,-0.1907,-0.1927,-0.1942,-0.1959,-0.1988,-0.2002,-0.201,-0.2013,-0.2038,-0.2059,-0.2077,-0.205,-0.2073,-0.2074,-0.2081,-0.2121,-0.2044,-0.2074,-0.2089,-0.209,-0.2091,0,-0.1865,-0.1851,-0.1843,-0.1849,-0.1856,-0.1865,-0.1891,-0.1908,-0.1944,-0.1955,-0.1983,-0.2001,-0.2045,-0.2045,-0.2104,-0.2078,-0.2094,-0.2108,-0.2109,-0.2132,-0.2101,-0.2057,-0.2085,-0.1875,-0.2101,-0.21,-0.2099,0,-0.1851,-0.1847,-0.183,-0.1832,-0.1844,-0.1851,-0.1865,-0.1899,-0.1915,-0.1951,-0.1969,-0.2013,-0.2042,-0.2078,-0.2121,-0.2107,-0.218,-0.2161,-0.2188,-0.2188,-0.2138,-0.2132,-0.1967,-0.2207,-0.2207,-0.2207,-0.2207,0,-0.1841,-0.1834,-0.1817,-0.1808,-0.1805,-0.1828,-0.1839,-0.1862,-0.1898,-0.1926,-0.1963,-0.1999,-0.2051,-0.2097,-0.2128,-0.2188,-0.2187,-0.2215,-0.221,-0.2135,-0.2129,-0.1957,-0.1938,-0.2208,-0.2208,-0.2207,-0.2207,0,-0.1835,-0.182,-0.1805,-0.1797,-0.1796,-0.1797,-0.1818,-0.183,-0.1867,-0.1909,-0.1922,-0.1991,-0.2053,-0.2101,-0.2163,-0.22,-0.2191,-0.226,-0.2171,-0.2157,-0.2005,-0.1993,-0.2056,-0.1997,-0.2311,-0.2311,-0.2312,0,-0.1825,-0.181,-0.179,-0.1781,-0.1775,-0.1774,-0.1778,-0.1807,-0.1828,-0.1911,-0.1936,-0.2002,-0.2056,-0.2155,-0.2217,-0.2276,-0.2188,-0.2238,-0.2219,-0.2002,-0.1984,-0.2034,-0.1982,-0.2139,-0.2138,-0.2138,-0.2137,0,-0.1804,-0.1798,-0.1784,-0.1761,-0.1752,-0.1743,-0.1754,-0.1765,-0.182,-0.1869,-0.1945,-0.1993,-0.2095,-0.214,-0.2215,-0.2236,-0.2134,-0.2229,-0.2015,-0.1867,-0.1904,-0.1839,-0.2097,-0.2131,-0.2131,-0.2132,-0.2132,-0.2133,-0.1787,-0.1776,-0.1754,-0.174,-0.1734,-0.1718,-0.1692,-0.1732,-0.1768,-0.1843,-0.1928,-0.2005,-0.2037,-0.2145,-0.2091,-0.1946,-0.2123,-0.1903,-0.1917,-0.1993,-0.1912,-0.2173,-0.2197,-0.2198,-0.2198,-0.2199,-0.22,0,-0.1747,-0.1743,-0.1733,-0.1705,-0.1689,-0.1688,-0.168,-0.1656,-0.1689,-0.1812,-0.1889,-0.1972,-0.1917,-0.1844,-0.1757,-0.1632,-0.1598,-0.155,-0.1516,-0.1484,-0.1677,-0.1631,-0.1518,-0.1518,-0.1518,-0.1518,-0.1519,-0.1519,-0.1721,-0.1699,-0.17,-0.1663,-0.1646,-0.1585,-0.1563,-0.1546,-0.1601,-0.1697,-0.18,-0.19,-0.1772,-0.1654,-0.1314,-0.1225,-0.1086,-0.12,-0.1158,-0.1142,-0.1171,-0.1199,-0.1137,-0.0923,-0.0923,-0.0898,-0.0897,-0.0897]},{"header":{"parameterUnit":"m.s-1","parameterCategory":2,"la1":30.2991,"la2":30.254,"lo1":-89.0895,"lo2":-89.0444,"dy":0.0017,"dx":0.0017,"nx":28,"ny":28,"refTime":"2024-06-25T03:00:00:Z","depth":"0","parameterNumber":3,"parameterNumberName":"V-component_of_CURRENTS"},"data":[0,0,0,0,0,0,0,0,0,0,0,0,0,0,0,0,0,0,0,0,0,0,0,0,0,0,0,0,0,0,0,0,0,0,0,0,0,0,0,0,0,0,0,0,0,0,0,0,0,0,0,0,0,0,0,0,0,0,-0.1977,-0.1978,0,-0.1995,-0.1994,-0.1994,-0.1965,-0.1964,-0.1964,-0.1964,-0.1825,-0.1821,-0.1818,0,0,0,0,0,0,0,0,0,0,0,0,0,-0.1875,-0.1876,-0.1977,-0.1978,-0.1979,-0.1995,-0.1994,-0.1994,-0.1965,-0.1964,-0.1964,-0.1964,-0.1826,-0.1822,-0.1818,0,0,0,0,0,0,0,0,0,0,0,0,0,-0.1902,-0.1877,-0.1977,-0.1972,-0.1972,-0.1995,-0.1994,-0.1994,-0.1965,-0.1964,-0.1964,-0.1963,-0.1827,-0.1822,-0.1817,-0.1796,0,0,-0.1802,-0.1799,0,0,0,0,0,0,0,0,-0.19,-0.1905,-0.1972,-0.1972,-0.1972,-0.1983,-0.1908,-0.1922,-0.1965,-0.196,-0.1964,-0.1963,-0.1868,-0.186,-0.1856,-0.1789,-0.1783,-0.1801,-0.1798,-0.1796,-0.1794,0,0,0,0,0,0,0,-0.1899,-0.1904,-0.1977,-0.1973,-0.1973,-0.1954,-0.1957,-0.191,-0.1908,-0.196,-0.196,-0.1974,-0.1866,-0.1861,-0.1852,-0.1781,-0.1801,-0.1797,-0.1794,-0.1792,-0.1668,-0.1668,0,0,0,0,0,0,-0.1914,-0.1902,-0.1976,-0.1978,-0.1943,-0.1957,-0.196,-0.1974,-0.1912,-0.1906,-0.1974,-0.1972,-0.187,-0.1858,-0.1847,-0.1821,-0.1796,-0.1791,-0.1788,-0.1668,-0.1668,-0.1668,0,0,0,0,0,0,-0.1912,-0.1921,-0.1976,-0.1946,-0.1953,-0.196,-0.1976,-0.1975,-0.1967,-0.1926,-0.1914,-0.1968,-0.1869,-0.1854,-0.1799,-0.1815,-0.1789,-0.1784,-0.1669,-0.1668,-0.1668,-0.1766,0,0,0,0,0,0,-0.1909,-0.192,-0.1922,-0.1947,-0.1955,-0.1984,-0.1978,-0.1976,-0.198,-0.1977,-0.1916,-0.1903,-0.1868,-0.1807,-0.1794,-0.1807,-0.178,-0.1669,-0.1669,-0.1668,-0.1763,-0.1769,-0.1774,0,0,0,0,0,-0.1905,-0.1913,-0.1922,-0.1931,-0.1963,-0.1985,-0.1985,-0.1984,-0.198,-0.1974,-0.1933,-0.1905,-0.1796,-0.1803,-0.1788,-0.18,-0.1669,-0.1669,-0.1668,-0.1761,-0.1768,-0.1774,0,0,0,0,0,0,-0.1859,-0.1913,-0.1922,-0.1943,-0.1962,-0.1982,-0.1983,-0.1985,-0.1952,-0.1942,-0.1896,-0.188,-0.1845,-0.1798,-0.1808,-0.176,-0.173,-0.1726,-0.1805,-0.1811,-0.1817,-0.1853,-0.1776,0,0,0,0,0,-0.1857,-0.188,-0.1921,-0.1933,-0.195,-0.1966,-0.1972,-0.1974,-0.1961,-0.1947,-0.191,-0.1864,-0.1832,-0.1802,-0.1762,-0.1726,-0.1695,-0.1723,-0.1729,-0.1734,-0.1751,-0.1718,-0.1724,-0.1666,-0.1666,-0.1666,0,0,-0.1842,-0.1875,-0.1886,-0.1926,-0.1942,-0.1967,-0.1966,-0.1979,-0.1994,-0.1934,-0.1919,-0.188,-0.1827,-0.18,-0.1779,-0.1761,-0.1731,-0.1734,-0.1739,-0.1753,-0.1719,-0.1725,-0.173,-0.1666,-0.1666,-0.1666,0,0,-0.1839,-0.1858,-0.1885,-0.1903,-0.194,-0.1956,-0.1963,-0.1983,-0.1985,-0.1969,-0.194,-0.1921,-0.1846,-0.1838,-0.1819,-0.1827,-0.1767,-0.1793,-0.1846,-0.1814,-0.1819,-0.1823,-0.1787,-0.1788,-0.1791,-0.1791,-0.1791,0,-0.1817,-0.1864,-0.189,-0.1919,-0.1941,-0.1956,-0.1985,-0.1993,-0.1986,-0.1994,-0.1968,-0.1913,-0.1881,-0.1874,-0.1886,-0.1848,-0.18,-0.1831,-0.1825,-0.1828,-0.1831,-0.1793,-0.1792,-0.1795,-0.1795,-0.1794,-0.1794,0,-0.1844,-0.1873,-0.1889,-0.1941,-0.1959,-0.1981,-0.2015,-0.2024,-0.2028,-0.2036,-0.2027,-0.1986,-0.196,-0.1946,-0.1921,-0.1925,-0.1876,-0.1844,-0.1818,-0.1844,-0.18,-0.1798,-0.1802,-0.18,-0.1799,-0.1798,0,0,-0.1815,-0.1897,-0.19,-0.1932,-0.1974,-0.1996,-0.2031,-0.2075,-0.2098,-0.2083,-0.2105,-0.2084,-0.2067,-0.2045,-0.2009,-0.1987,-0.1984,-0.1925,-0.1921,-0.1908,-0.1891,-0.1896,-0.1893,-0.1933,-0.1933,-0.1933,-0.1853,0,-0.183,-0.1901,-0.1932,-0.1979,-0.2022,-0.2046,-0.2078,-0.2109,-0.2123,-0.2139,-0.2131,-0.2119,-0.2101,-0.208,-0.2069,-0.1999,-0.198,-0.2008,-0.1852,-0.1848,-0.1866,-0.1893,-0.175,-0.1669,-0.185,-0.185,-0.1849,0,-0.185,-0.1901,-0.1967,-0.2029,-0.2047,-0.2068,-0.2127,-0.2152,-0.2187,-0.2192,-0.2196,-0.2173,-0.2169,-0.2133,-0.206,-0.2064,-0.2,-0.1943,-0.1937,-0.1911,-0.185,-0.1671,-0.1657,-0.136,-0.1845,-0.1845,-0.1845,0,-0.1847,-0.1918,-0.1978,-0.1997,-0.2069,-0.2096,-0.2124,-0.2167,-0.2192,-0.2217,-0.2216,-0.2209,-0.2177,-0.212,-0.2049,-0.2031,-0.1948,-0.1906,-0.1852,-0.185,-0.1688,-0.1673,-0.139,-0.1859,-0.1859,-0.1859,-0.186,0,-0.186,-0.1898,-0.198,-0.2011,-0.2064,-0.21,-0.2145,-0.2177,-0.2206,-0.223,-0.2234,-0.2228,-0.2163,-0.2118,-0.2056,-0.1963,-0.1957,-0.1878,-0.1839,-0.1717,-0.1706,-0.1409,-0.1249,-0.1856,-0.1857,-0.1858,-0.1858,0,-0.1846,-0.1904,-0.1972,-0.2052,-0.2071,-0.2104,-0.2152,-0.2186,-0.2202,-0.2229,-0.2231,-0.2219,-0.2167,-0.2117,-0.2011,-0.1954,-0.1705,-0.1842,-0.1715,-0.1666,-0.1356,-0.1209,-0.0997,-0.0877,-0.1761,-0.1761,-0.176,0,-0.1842,-0.1886,-0.1991,-0.2032,-0.2066,-0.2114,-0.2154,-0.2186,-0.2218,-0.2222,-0.2237,-0.2194,-0.2193,-0.2067,-0.1948,-0.1851,-0.165,-0.1646,-0.1619,-0.1333,-0.1138,-0.1105,-0.1016,-0.1419,-0.1416,-0.1414,-0.1412,0,-0.1831,-0.188,-0.1944,-0.2046,-0.2098,-0.2151,-0.22,-0.2224,-0.2259,-0.2275,-0.2277,-0.2267,-0.2134,-0.1991,-0.1867,-0.1752,-0.1388,-0.1597,-0.1299,-0.0863,-0.0803,-0.0669,-0.1478,-0.139,-0.1392,-0.1394,-0.1395,-0.1396,-0.1808,-0.1859,-0.1966,-0.2057,-0.2122,-0.2194,-0.224,-0.2294,-0.2341,-0.2392,-0.2338,-0.2336,-0.2003,-0.1818,-0.1661,-0.1145,-0.1239,-0.0958,-0.0807,-0.081,-0.0674,-0.1471,-0.1356,-0.1357,-0.1359,-0.136,-0.1362,0,-0.1783,-0.1873,-0.1968,-0.2092,-0.2172,-0.2203,-0.2284,-0.2341,-0.2415,-0.2453,-0.2472,-0.2173,-0.1796,-0.1402,-0.0742,-0.0393,-0.0303,-0.0162,0.0017,0.0062,-0.0602,-0.0564,-0.0272,-0.0272,-0.0273,-0.0273,-0.0273,-0.0274,-0.1774,-0.1879,-0.1962,-0.2114,-0.2193,-0.2307,-0.2356,-0.2438,-0.2494,-0.2478,-0.2382,-0.228,-0.1415,-0.0319,0.0433,0.0505,0.0791,0.0792,0.0864,0.0559,0.0498,0.0441,0.0515,0.1028,0.103,0.1503,0.151,0.1514]}],[{"header":{"parameterUnit":"m.s-1","parameterCategory":2,"la1":30.2991,"la2":30.254,"lo1":-89.0895,"lo2":-89.0444,"dy":0.0017,"dx":0.0017,"nx":28,"ny":28,"refTime":"2024-06-25T03:00:00:Z","depth":"2","parameterNumber":2,"parameterNumberName":"U-component_of_CURRENTS"},"data":[0,0,0,0,0,0,0,0,0,0,0,0,0,0,0,0,0,0,0,0,0,0,0,0,0,0,0,0,0,0,0,0,0,0,0,0,0,0,0,0,0,0,0,0,0,0,0,0,0,0,0,0,0,0,0,0,0,0,-0.2011,-0.2011,0,-0.2038,-0.2038,-0.2038,-0.2041,-0.2041,-0.204,-0.204,-0.198,-0.1979,-0.1977,0,0,0,0,0,0,0,0,0,0,0,0,0,-0.1931,-0.1933,-0.2011,-0.2011,-0.2012,-0.2038,-0.2038,-0.2038,-0.2041,-0.2041,-0.204,-0.204,-0.1981,-0.1979,-0.1977,0,0,0,0,0,0,0,0,0,0,0,0,0,-0.1961,-0.1933,-0.2011,-0.2017,-0.2018,-0.2038,-0.2038,-0.2038,-0.2041,-0.2041,-0.204,-0.204,-0.1981,-0.1979,-0.1977,-0.1967,0,0,-0.197,-0.1969,0,0,0,0,0,0,0,0,-0.196,-0.1964,-0.2016,-0.2017,-0.2018,-0.2037,-0.1988,-0.2011,-0.2041,-0.2031,-0.204,-0.204,-0.1992,-0.1989,-0.1994,-0.1965,-0.1962,-0.197,-0.1969,-0.1968,-0.1967,0,0,0,0,0,0,0,-0.1958,-0.1963,-0.202,-0.2017,-0.2018,-0.2009,-0.2013,-0.1992,-0.2009,-0.2032,-0.2032,-0.2038,-0.1992,-0.1996,-0.1992,-0.1961,-0.197,-0.1968,-0.1967,-0.1966,-0.1887,-0.1887,0,0,0,0,0,0,-0.196,-0.1961,-0.2019,-0.2021,-0.199,-0.201,-0.2015,-0.203,-0.2012,-0.201,-0.2038,-0.2038,-0.2,-0.1995,-0.199,-0.1974,-0.1968,-0.1966,-0.1964,-0.1888,-0.1887,-0.1886,0,0,0,0,0,0,-0.1958,-0.1965,-0.2018,-0.1992,-0.1998,-0.2012,-0.2029,-0.2031,-0.2039,-0.2018,-0.2014,-0.2046,-0.1999,-0.1993,-0.1959,-0.1971,-0.1965,-0.1963,-0.1889,-0.1888,-0.1887,-0.1943,0,0,0,0,0,0,-0.1956,-0.1964,-0.1976,-0.1993,-0.2,-0.2015,-0.2029,-0.2031,-0.2044,-0.2044,-0.2023,-0.2017,-0.1999,-0.1963,-0.1957,-0.1968,-0.1961,-0.189,-0.1888,-0.1887,-0.1942,-0.1944,-0.1945,0,0,0,0,0,-0.1953,-0.1966,-0.1976,-0.1983,-0.2016,-0.2014,-0.2016,-0.2024,-0.2044,-0.2035,-0.2022,-0.2018,-0.195,-0.196,-0.1954,-0.1965,-0.1891,-0.1889,-0.1887,-0.1941,-0.1943,-0.1945,0,0,0,0,0,0,-0.1936,-0.1968,-0.1979,-0.2002,-0.2002,-0.2015,-0.2017,-0.203,-0.2018,-0.202,-0.2007,-0.1998,-0.1969,-0.1953,-0.1965,-0.1933,-0.192,-0.1917,-0.1963,-0.1965,-0.1967,-0.2052,-0.1959,0,0,0,0,0,-0.194,-0.1961,-0.1975,-0.1993,-0.1994,-0.201,-0.2015,-0.2018,-0.2014,-0.2011,-0.1997,-0.1978,-0.1957,-0.1951,-0.1916,-0.1907,-0.1921,-0.1906,-0.1908,-0.191,-0.1972,-0.1972,-0.1981,-0.1881,-0.1881,-0.1881,0,0,-0.1942,-0.196,-0.1974,-0.199,-0.1997,-0.1973,-0.2011,-0.2014,-0.2006,-0.2003,-0.1985,-0.1975,-0.195,-0.193,-0.1918,-0.1922,-0.1939,-0.1908,-0.191,-0.1973,-0.1971,-0.1982,-0.1991,-0.1879,-0.188,-0.188,0,0,-0.1922,-0.1968,-0.1957,-0.1952,-0.1956,-0.1962,-0.1963,-0.1971,-0.1989,-0.1964,-0.197,-0.1983,-0.1923,-0.1944,-0.1939,-0.1932,-0.1936,-0.1904,-0.2002,-0.1998,-0.2009,-0.2018,-0.2033,-0.2043,-0.192,-0.192,-0.192,0,-0.1914,-0.1921,-0.195,-0.192,-0.1943,-0.1952,-0.1946,-0.194,-0.1936,-0.2001,-0.1947,-0.1969,-0.1938,-0.1991,-0.1995,-0.1944,-0.195,-0.1999,-0.2007,-0.2016,-0.2024,-0.2038,-0.2048,-0.1923,-0.1922,-0.1922,-0.1922,0,-0.1873,-0.1873,-0.1868,-0.1846,-0.1863,-0.1864,-0.1874,-0.1906,-0.1931,-0.1955,-0.2013,-0.198,-0.2021,-0.1998,-0.1997,-0.2066,-0.2052,-0.1998,-0.2015,-0.2039,-0.205,-0.206,-0.1926,-0.1925,-0.1924,-0.1924,0,0,-0.1873,-0.1848,-0.1851,-0.1863,-0.185,-0.1878,-0.1892,-0.1967,-0.2028,-0.2016,-0.2106,-0.2101,-0.2144,-0.2146,-0.2147,-0.2174,-0.2219,-0.2138,-0.2136,-0.2181,-0.2238,-0.2191,-0.2197,-0.2165,-0.2167,-0.2169,-0.2217,0,-0.1839,-0.1824,-0.1819,-0.1819,-0.1829,-0.1885,-0.1906,-0.198,-0.2026,-0.2087,-0.2147,-0.2164,-0.217,-0.2191,-0.223,-0.221,-0.2252,-0.2214,-0.2189,-0.219,-0.2166,-0.221,-0.1868,-0.188,-0.2227,-0.2229,-0.223,0,-0.1803,-0.1816,-0.1829,-0.1889,-0.1905,-0.1896,-0.206,-0.2068,-0.2165,-0.2209,-0.2293,-0.2291,-0.2373,-0.2311,-0.2373,-0.2348,-0.2334,-0.2313,-0.2312,-0.2275,-0.2163,-0.1912,-0.1886,-0.2247,-0.2246,-0.2244,-0.2243,0,-0.1853,-0.1843,-0.1894,-0.1898,-0.1926,-0.1999,-0.2037,-0.2139,-0.218,-0.2281,-0.231,-0.2397,-0.24,-0.2421,-0.241,-0.2386,-0.2442,-0.2368,-0.2331,-0.2327,-0.2043,-0.201,-0.2425,-0.2425,-0.2425,-0.2425,-0.2424,0,-0.1844,-0.1874,-0.1922,-0.1934,-0.1999,-0.2045,-0.2117,-0.2182,-0.225,-0.2286,-0.2361,-0.2382,-0.2425,-0.2451,-0.2446,-0.2439,-0.2463,-0.2398,-0.235,-0.2048,-0.2016,-0.2338,-0.2327,-0.2426,-0.2426,-0.2426,-0.2425,0,-0.1839,-0.187,-0.1899,-0.1972,-0.1993,-0.2043,-0.2089,-0.2137,-0.2223,-0.2263,-0.2285,-0.2373,-0.2408,-0.2454,-0.2467,-0.2458,-0.2453,-0.2443,-0.2112,-0.2028,-0.2336,-0.2327,-0.241,-0.2409,-0.2409,-0.2408,-0.2407,0,-0.1824,-0.1843,-0.1904,-0.1916,-0.1925,-0.1989,-0.2012,-0.2096,-0.2127,-0.2237,-0.2244,-0.232,-0.2351,-0.2399,-0.2373,-0.2382,-0.2435,-0.2076,-0.1982,-0.2397,-0.2342,-0.2334,-0.2327,-0.1606,-0.1599,-0.1593,-0.1589,0,-0.1771,-0.18,-0.1826,-0.185,-0.1872,-0.1898,-0.1946,-0.1971,-0.207,-0.213,-0.2202,-0.2243,-0.2268,-0.2141,-0.2164,-0.2084,-0.2051,-0.1963,-0.2446,-0.1686,-0.1649,-0.1592,-0.1608,-0.1537,-0.1542,-0.1546,-0.1549,-0.1551,-0.172,-0.1713,-0.1749,-0.1764,-0.1797,-0.1827,-0.1829,-0.191,-0.1967,-0.2074,-0.2138,-0.2132,-0.2006,-0.1934,-0.1814,-0.1676,-0.1849,-0.1656,-0.1668,-0.1688,-0.161,-0.1575,-0.1437,-0.1441,-0.1445,-0.1448,-0.1451,0,-0.1625,-0.164,-0.1658,-0.1678,-0.169,-0.1738,-0.1786,-0.1783,-0.1847,-0.1951,-0.2046,-0.1753,-0.1627,-0.1508,-0.1256,-0.1218,-0.1135,-0.1072,-0.0933,-0.098,-0.1023,-0.0909,-0.0552,-0.0551,-0.055,-0.0549,0,0,-0.1579,-0.1551,-0.1561,-0.1557,-0.1592,-0.1582,-0.1601,-0.1625,-0.1657,-0.1692,-0.1664,-0.1816,-0.1579,-0.1215,-0.1007,-0.0778,-0.0896,-0.0673,-0.1367,-0.1259,-0.1304,-0.1294,-0.1165,0,0,0,0,0]},{"header":{"parameterUnit":"m.s-1","parameterCategory":2,"la1":30.2991,"la2":30.254,"lo1":-89.0895,"lo2":-89.0444,"dy":0.0017,"dx":0.0017,"nx":28,"ny":28,"refTime":"2024-06-25T03:00:00:Z","depth":"2","parameterNumber":3,"parameterNumberName":"V-component_of_CURRENTS"},"data":[0,0,0,0,0,0,0,0,0,0,0,0,0,0,0,0,0,0,0,0,0,0,0,0,0,0,0,0,0,0,0,0,0,0,0,0,0,0,0,0,0,0,0,0,0,0,0,0,0,0,0,0,0,0,0,0,0,0,0.0985,0.0986,0,0.1068,0.1069,0.107,0.1087,0.1086,0.1086,0.1085,0.1135,0.1137,0.1139,0,0,0,0,0,0,0,0,0,0,0,0,0,0.0924,0.0924,0.0985,0.0986,0.0987,0.1068,0.1069,0.107,0.1087,0.1086,0.1085,0.1085,0.1134,0.1137,0.1139,0,0,0,0,0,0,0,0,0,0,0,0,0,0.0973,0.0924,0.0985,0.1005,0.1008,0.1068,0.1069,0.1071,0.1087,0.1086,0.1085,0.1084,0.1134,0.1136,0.1139,0.1177,0,0,0.1148,0.1149,0,0,0,0,0,0,0,0,0.097,0.0975,0.1001,0.1004,0.1007,0.1066,0.1066,0.1105,0.1087,0.1057,0.1085,0.1084,0.1109,0.1114,0.1133,0.1179,0.1182,0.1148,0.115,0.1151,0.1152,0,0,0,0,0,0,0,0.0966,0.0972,0.1018,0.1002,0.1006,0.1038,0.1043,0.1074,0.1087,0.106,0.1061,0.107,0.1111,0.113,0.1134,0.1182,0.1148,0.1151,0.1153,0.1154,0.1146,0.1145,0,0,0,0,0,0,0.0953,0.0968,0.1016,0.1021,0.0985,0.104,0.1046,0.1048,0.1088,0.1093,0.1071,0.1071,0.1126,0.1131,0.1136,0.1065,0.1151,0.1154,0.1156,0.1148,0.1146,0.1144,0,0,0,0,0,0,0.0951,0.0956,0.1012,0.0997,0.1006,0.1041,0.1044,0.105,0.1047,0.1097,0.1101,0.1058,0.1125,0.1132,0.1123,0.1071,0.1156,0.1158,0.1151,0.1148,0.1145,0.0998,0,0,0,0,0,0,0.0949,0.0954,0.0941,0.0995,0.1006,0.1001,0.1046,0.1053,0.1055,0.1055,0.1088,0.1093,0.1125,0.1118,0.1126,0.1077,0.116,0.1153,0.1149,0.1146,0.1005,0.099,0.0978,0,0,0,0,0,0.0946,0.0924,0.094,0.0945,0.099,0.0999,0.1005,0.103,0.1055,0.1028,0.1056,0.1091,0.11,0.1119,0.1129,0.1079,0.1155,0.115,0.1146,0.1012,0.0993,0.0978,0,0,0,0,0,0,0.0889,0.0926,0.0944,0.0934,0.0946,0.1,0.0986,0.1016,0.1023,0.1023,0.1075,0.1081,0.1041,0.1091,0.1111,0.1066,0.113,0.1127,0.1025,0.1008,0.0995,0.1029,0.1163,0,0,0,0,0,0.0873,0.0864,0.0903,0.0891,0.0893,0.094,0.0948,0.0965,0.0988,0.0991,0.1015,0.1039,0.1038,0.1046,0.105,0.1047,0.1103,0.1019,0.1005,0.0993,0.1027,0.1073,0.1068,0.1129,0.1129,0.113,0,0,0.085,0.0868,0.0864,0.0877,0.0895,0.0863,0.094,0.0934,0.0903,0.0996,0.0953,0.0982,0.1021,0.0989,0.098,0.1024,0.0988,0.0987,0.0976,0.1019,0.1068,0.1063,0.1058,0.1126,0.1127,0.1127,0,0,0.0787,0.0811,0.0774,0.077,0.0781,0.0803,0.0791,0.0824,0.0828,0.0805,0.0851,0.0864,0.0864,0.0893,0.0906,0.0831,0.0898,0.0816,0.0794,0.0835,0.0832,0.0829,0.0825,0.0824,0.0827,0.0827,0.0827,0,0.0753,0.0722,0.0761,0.0715,0.071,0.076,0.0715,0.0715,0.0737,0.077,0.0756,0.0807,0.0818,0.0835,0.0795,0.0799,0.0831,0.0847,0.0819,0.0818,0.0818,0.0816,0.0817,0.0819,0.082,0.0821,0.0822,0,0.0664,0.0627,0.0603,0.0561,0.0552,0.0525,0.0535,0.0532,0.0552,0.0592,0.0607,0.064,0.0696,0.0672,0.0706,0.0718,0.0736,0.0777,0.0862,0.0804,0.0803,0.0806,0.0808,0.0811,0.0813,0.0815,0,0,0.0622,0.0555,0.0544,0.0514,0.0479,0.0476,0.0421,0.0441,0.0456,0.0464,0.0499,0.0494,0.0578,0.0602,0.065,0.0691,0.0668,0.0736,0.0742,0.0734,0.0734,0.0725,0.0728,0.0712,0.0713,0.0714,0.0709,0,0.0543,0.0447,0.0433,0.0339,0.0299,0.0328,0.0288,0.0314,0.0346,0.0381,0.0461,0.0479,0.0527,0.0551,0.06,0.066,0.0683,0.0665,0.0794,0.0798,0.08,0.0735,0.0785,0.0786,0.0713,0.0713,0.0714,0,0.0463,0.0416,0.0318,0.0275,0.0264,0.0211,0.0236,0.0207,0.0275,0.031,0.0389,0.045,0.051,0.0542,0.0643,0.0633,0.0678,0.072,0.0722,0.0788,0.0798,0.0848,0.0796,0.0721,0.072,0.072,0.0719,0,0.0447,0.0346,0.0281,0.0254,0.0195,0.0182,0.0166,0.0207,0.0203,0.0277,0.0291,0.0406,0.0422,0.053,0.0594,0.0629,0.0688,0.0747,0.0779,0.0776,0.0888,0.0895,0.0817,0.0817,0.0817,0.0818,0.0818,0,0.0388,0.0332,0.0268,0.0226,0.017,0.0156,0.0123,0.0141,0.0163,0.0153,0.0259,0.0262,0.0421,0.0471,0.0573,0.0661,0.0665,0.0774,0.0786,0.0828,0.0828,0.0853,0.0857,0.0817,0.0817,0.0817,0.0817,0,0.0363,0.0317,0.0232,0.0168,0.0145,0.0109,0.0048,0.0035,0.0063,0.0044,0.0052,0.0139,0.0189,0.0317,0.045,0.0594,0.0699,0.0721,0.0728,0.0743,0.0771,0.0767,0.0805,0.0805,0.0805,0.0804,0.0804,0,0.0336,0.0288,0.0187,0.0131,0.0087,0.0028,-0.0019,-0.002,-0.0052,-0.0046,-0.0068,-0.0026,0.0008,0.0193,0.0408,0.0578,0.0591,0.0766,0.0867,0.0768,0.0775,0.0772,0.0768,0.0926,0.0926,0.0927,0.0928,0,0.0281,0.0244,0.0177,0.0063,-0.0012,-0.01,-0.017,-0.0213,-0.0224,-0.0239,-0.0272,-0.0238,-0.006,0.0186,0.0427,0.0545,0.076,0.0789,0.0696,0.0915,0.0881,0.0888,0.0881,0.0935,0.0934,0.0933,0.0933,0.0933,0.0233,0.0179,0.0085,-0.0018,-0.0115,-0.0238,-0.0318,-0.0381,-0.0454,-0.0478,-0.0408,-0.027,0.0034,0.0407,0.0521,0.0679,0.0732,0.0907,0.0906,0.0903,0.0913,0.088,0.0933,0.0932,0.0931,0.0931,0.0931,0,0.0165,0.01,0.0008,-0.0136,-0.0254,-0.03,-0.0432,-0.0481,-0.0586,-0.0496,-0.0477,-0.0119,0.0192,0.042,0.0713,0.0893,0.0874,0.0897,0.0916,0.0914,0.0911,0.0919,0.0941,0.094,0.0938,0.0937,0,0,0.0116,0.0025,-0.0015,-0.0228,-0.0345,-0.0526,-0.0618,-0.0669,-0.0593,-0.0532,-0.0348,-0.0057,0.0344,0.0561,0.0747,0.0859,0.0813,0.0828,0.0837,0.0843,0.0834,0.0967,0.0984,0,0,0,0,0]}],[{"header":{"parameterUnit":"m.s-1","parameterCategory":2,"la1":30.2991,"la2":30.254,"lo1":-89.0895,"lo2":-89.0444,"dy":0.0017,"dx":0.0017,"nx":28,"ny":28,"refTime":"2024-06-25T03:00:00:Z","depth":"4","parameterNumber":2,"parameterNumberName":"U-component_of_CURRENTS"},"data":[0,0,0,0,0,0,0,0,0,0,0,0,0,0,0,0,0,0,0,0,0,0,0,0,0,0,0,0,0,0,0,0,0,0,0,0,0,0,0,0,0,0,0,0,0,0,0,0,0,0,0,0,0,0,0,0,0,0,-0.094,-0.0941,0,-0.0996,-0.0997,-0.0997,-0.1037,-0.1038,-0.1038,-0.1039,-0.1121,-0.1123,-0.1124,0,0,0,0,0,0,0,0,0,0,0,0,0,-0.0884,-0.0884,-0.094,-0.0941,-0.0942,-0.0996,-0.0997,-0.0997,-0.1037,-0.1038,-0.1038,-0.1039,-0.1121,-0.1123,-0.1125,0,0,0,0,0,0,0,0,0,0,0,0,0,-0.0917,-0.0884,-0.094,-0.0972,-0.0975,-0.0996,-0.0997,-0.0997,-0.1037,-0.1038,-0.1039,-0.104,-0.112,-0.1123,-0.1125,-0.1119,0,0,-0.1132,-0.1133,0,0,0,0,0,0,0,0,-0.0915,-0.0919,-0.0966,-0.0969,-0.0974,-0.1014,-0.1007,-0.1041,-0.1036,-0.1009,-0.1039,-0.104,-0.109,-0.1095,-0.1097,-0.1123,-0.1127,-0.1132,-0.1134,-0.1135,-0.1135,0,0,0,0,0,0,0,-0.0913,-0.0917,-0.0959,-0.0967,-0.0972,-0.0989,-0.0994,-0.1014,-0.1041,-0.1012,-0.1016,-0.1028,-0.1092,-0.1095,-0.11,-0.1128,-0.1132,-0.1134,-0.1136,-0.1137,-0.1253,-0.1254,0,0,0,0,0,0,-0.0912,-0.0914,-0.0957,-0.0961,-0.0951,-0.0989,-0.0995,-0.0997,-0.104,-0.1049,-0.1027,-0.1029,-0.109,-0.1097,-0.1103,-0.1179,-0.1135,-0.1137,-0.1138,-0.1251,-0.1253,-0.1255,0,0,0,0,0,0,-0.091,-0.0914,-0.0955,-0.0943,-0.0949,-0.0989,-0.0991,-0.0998,-0.1027,-0.1052,-0.106,-0.1053,-0.1091,-0.1099,-0.1148,-0.118,-0.1138,-0.114,-0.1249,-0.1251,-0.1254,-0.128,0,0,0,0,0,0,-0.0908,-0.0913,-0.0923,-0.0942,-0.095,-0.0977,-0.0991,-0.0998,-0.1033,-0.1037,-0.1077,-0.1084,-0.1093,-0.1144,-0.115,-0.1182,-0.1142,-0.1247,-0.125,-0.1253,-0.1277,-0.1284,-0.1289,0,0,0,0,0,-0.0905,-0.0913,-0.0922,-0.0929,-0.0959,-0.0978,-0.0983,-0.1012,-0.1033,-0.1043,-0.1081,-0.1084,-0.1169,-0.1147,-0.1154,-0.1187,-0.1245,-0.1249,-0.1253,-0.1275,-0.1282,-0.1289,0,0,0,0,0,0,-0.0896,-0.0919,-0.0929,-0.0945,-0.0965,-0.0986,-0.1006,-0.1025,-0.1061,-0.1076,-0.1099,-0.1109,-0.1167,-0.1173,-0.1149,-0.1232,-0.121,-0.1215,-0.1224,-0.1232,-0.1237,-0.1212,-0.1144,0,0,0,0,0,-0.0897,-0.0905,-0.0931,-0.0942,-0.0958,-0.0985,-0.1003,-0.1021,-0.1052,-0.1069,-0.1107,-0.1147,-0.1182,-0.1204,-0.1234,-0.1272,-0.1258,-0.1301,-0.1307,-0.1311,-0.1297,-0.1304,-0.1308,-0.1267,-0.1267,-0.1267,0,0,-0.0898,-0.0911,-0.0918,-0.0941,-0.0962,-0.0993,-0.0998,-0.1027,-0.1062,-0.1073,-0.1144,-0.117,-0.1198,-0.1247,-0.1273,-0.1259,-0.1319,-0.1316,-0.132,-0.1303,-0.1308,-0.1312,-0.1315,-0.1269,-0.1269,-0.1269,0,0,-0.0902,-0.0916,-0.093,-0.0951,-0.0986,-0.1005,-0.102,-0.1061,-0.1091,-0.1145,-0.1172,-0.1212,-0.1272,-0.1295,-0.1312,-0.1365,-0.1351,-0.1388,-0.1393,-0.14,-0.1403,-0.1405,-0.1398,-0.1399,-0.1388,-0.1388,-0.1388,0,-0.0907,-0.0924,-0.0938,-0.0964,-0.0987,-0.1017,-0.1046,-0.108,-0.1136,-0.1156,-0.1176,-0.1261,-0.1291,-0.1335,-0.1358,-0.1377,-0.137,-0.1362,-0.1405,-0.1406,-0.1408,-0.14,-0.1401,-0.139,-0.1389,-0.1389,-0.1389,0,-0.0924,-0.0948,-0.0961,-0.1003,-0.1028,-0.1053,-0.1101,-0.1138,-0.118,-0.1209,-0.1269,-0.1307,-0.1344,-0.1376,-0.1384,-0.1419,-0.1408,-0.1411,-0.1379,-0.1413,-0.1404,-0.1404,-0.1392,-0.1392,-0.1391,-0.1391,0,0,-0.0901,-0.0962,-0.0967,-0.0988,-0.1049,-0.1063,-0.1126,-0.117,-0.1202,-0.1262,-0.1298,-0.1365,-0.1371,-0.139,-0.1412,-0.1426,-0.1443,-0.1422,-0.1422,-0.14,-0.1447,-0.133,-0.1319,-0.1451,-0.1451,-0.1451,-0.1437,0,-0.0911,-0.0953,-0.0987,-0.1034,-0.1059,-0.1104,-0.1153,-0.1197,-0.1243,-0.1289,-0.1323,-0.137,-0.1382,-0.14,-0.1415,-0.144,-0.1444,-0.1445,-0.143,-0.1429,-0.1308,-0.1315,-0.1452,-0.1437,-0.1437,-0.1437,-0.1437,0,-0.0913,-0.0939,-0.0982,-0.1036,-0.1052,-0.1087,-0.1142,-0.1191,-0.1255,-0.129,-0.1326,-0.1356,-0.1392,-0.1398,-0.1427,-0.1427,-0.143,-0.1444,-0.1444,-0.1318,-0.1311,-0.1397,-0.1437,-0.1437,-0.1437,-0.1437,-0.1437,0,-0.0864,-0.093,-0.0958,-0.098,-0.1053,-0.1075,-0.1115,-0.1181,-0.1209,-0.1282,-0.1296,-0.1351,-0.1364,-0.139,-0.1413,-0.1422,-0.1433,-0.1449,-0.1344,-0.1336,-0.1434,-0.1432,-0.1452,-0.1452,-0.1452,-0.1452,-0.1453,0,-0.0844,-0.0868,-0.0935,-0.0947,-0.0971,-0.1039,-0.1069,-0.1121,-0.1181,-0.1194,-0.1278,-0.1277,-0.136,-0.1376,-0.1405,-0.1359,-0.142,-0.1328,-0.1318,-0.1449,-0.1448,-0.1434,-0.1432,-0.1452,-0.1452,-0.1452,-0.1452,0,-0.0784,-0.0836,-0.0862,-0.0929,-0.0946,-0.0959,-0.1018,-0.1032,-0.1111,-0.1126,-0.1142,-0.1213,-0.1221,-0.1288,-0.133,-0.1315,-0.1316,-0.1286,-0.1409,-0.141,-0.1218,-0.1218,-0.1159,-0.1154,-0.1151,-0.1148,-0.1145,0,-0.0758,-0.0766,-0.0821,-0.0824,-0.0852,-0.0883,-0.0893,-0.0977,-0.0987,-0.1061,-0.1044,-0.1081,-0.1116,-0.1087,-0.1166,-0.1199,-0.1196,-0.1199,-0.1213,-0.1187,-0.1185,-0.1191,-0.1196,-0.1139,-0.1138,-0.1137,-0.1136,0,-0.0694,-0.0718,-0.0737,-0.074,-0.0747,-0.0754,-0.0776,-0.077,-0.0855,-0.0927,-0.0924,-0.0949,-0.0945,-0.0992,-0.1021,-0.105,-0.1206,-0.1161,-0.1169,-0.1182,-0.1163,-0.1166,-0.1175,-0.1123,-0.1125,-0.1126,-0.1127,0,-0.0639,-0.0628,-0.0648,-0.0647,-0.0651,-0.0624,-0.0651,-0.0658,-0.0682,-0.0781,-0.0764,-0.0833,-0.0903,-0.0909,-0.0936,-0.0953,-0.0947,-0.0955,-0.0974,-0.0989,-0.0943,-0.0896,-0.0747,0,0,0,0,0,-0.0575,-0.0558,-0.0551,-0.0542,-0.0545,-0.0547,-0.0571,-0.0606,-0.0677,-0.0644,-0.0713,-0.0715,-0.0748,-0.0786,-0.0769,-0.085,-0.0947,-0.0827,-0.0964,-0.1052,-0.1067,-0.1031,0,0,0,0,0,0,-0.0531,-0.0524,-0.0522,-0.0458,-0.0436,-0.0422,-0.0434,-0.0484,-0.048,-0.0568,-0.0586,-0.0669,-0.0706,-0.0744,-0.0753,-0.0766,-0.0838,-0.0879,-0.0878,-0.1043,-0.1057,-0.1069,-0.1037,0,0,0,0,0]},{"header":{"parameterUnit":"m.s-1","parameterCategory":2,"la1":30.2991,"la2":30.254,"lo1":-89.0895,"lo2":-89.0444,"dy":0.0017,"dx":0.0017,"nx":28,"ny":28,"refTime":"2024-06-25T03:00:00:Z","depth":"4","parameterNumber":3,"parameterNumberName":"V-component_of_CURRENTS"},"data":[0,0,0,0,0,0,0,0,0,0,0,0,0,0,0,0,0,0,0,0,0,0,0,0,0,0,0,0,0,0,0,0,0,0,0,0,0,0,0,0,0,0,0,0,0,0,0,0,0,0,0,0,0,0,0,0,0,0,0.0094,0.0094,0,0.0096,0.0096,0.0096,0.0115,0.0116,0.0116,0.0117,0.0163,0.0164,0.0164,0,0,0,0,0,0,0,0,0,0,0,0,0,0.0115,0.0114,0.0094,0.0094,0.0095,0.0096,0.0096,0.0095,0.0115,0.0116,0.0117,0.0117,0.0163,0.0164,0.0165,0,0,0,0,0,0,0,0,0,0,0,0,0,0.0107,0.0114,0.0094,0.0107,0.0108,0.0096,0.0096,0.0095,0.0115,0.0116,0.0117,0.0118,0.0163,0.0164,0.0165,0.0147,0,0,0.0167,0.0167,0,0,0,0,0,0,0,0,0.0108,0.0106,0.0104,0.0106,0.0107,0.0109,0.012,0.0116,0.0114,0.0109,0.0117,0.0118,0.015,0.0152,0.0145,0.0149,0.0151,0.0167,0.0168,0.0168,0.0168,0,0,0,0,0,0,0,0.0108,0.0106,0.0092,0.0105,0.0106,0.0115,0.0115,0.0119,0.0122,0.011,0.0112,0.0116,0.0151,0.0144,0.0147,0.0152,0.0167,0.0168,0.0168,0.0169,0.0229,0.023,0,0,0,0,0,0,0.0112,0.0106,0.0092,0.0092,0.0113,0.0114,0.0113,0.0105,0.0121,0.0125,0.0115,0.0117,0.0143,0.0146,0.0149,0.0194,0.0168,0.0169,0.0169,0.0228,0.023,0.0231,0,0,0,0,0,0,0.0112,0.011,0.0092,0.0103,0.0101,0.0112,0.0103,0.0104,0.011,0.0125,0.013,0.0121,0.0144,0.0147,0.0175,0.0194,0.0169,0.017,0.0227,0.0229,0.023,0.0244,0,0,0,0,0,0,0.0112,0.0109,0.0107,0.0102,0.0101,0.0088,0.0102,0.0104,0.0112,0.0115,0.0132,0.0136,0.0145,0.0174,0.0176,0.0195,0.017,0.0226,0.0228,0.023,0.0243,0.0246,0.025,0,0,0,0,0,0.0113,0.0107,0.0107,0.0106,0.0096,0.0088,0.0087,0.0098,0.0111,0.0108,0.0135,0.0136,0.0189,0.0175,0.0177,0.0197,0.0224,0.0227,0.023,0.0241,0.0246,0.025,0,0,0,0,0,0,0.0122,0.0108,0.0108,0.0101,0.0096,0.0093,0.0098,0.0101,0.0115,0.0128,0.0143,0.015,0.0187,0.0188,0.0172,0.0223,0.021,0.0213,0.0218,0.0222,0.0226,0.0189,0.0171,0,0,0,0,0,0.012,0.0107,0.0101,0.0095,0.0096,0.0097,0.0098,0.0101,0.0113,0.012,0.0137,0.0164,0.0195,0.0205,0.0228,0.0242,0.0244,0.026,0.0264,0.0267,0.024,0.0258,0.026,0.0239,0.0239,0.0239,0,0,0.0124,0.0114,0.0109,0.0096,0.0097,0.0098,0.01,0.0102,0.0108,0.0123,0.0149,0.0178,0.0205,0.0236,0.0251,0.0239,0.0284,0.027,0.0272,0.0243,0.026,0.0262,0.0264,0.0241,0.0241,0.024,0,0,0.0127,0.0116,0.0112,0.0106,0.0105,0.0103,0.0106,0.0108,0.0116,0.0136,0.0165,0.0201,0.0233,0.0257,0.0275,0.0307,0.0308,0.0323,0.0301,0.0319,0.032,0.0321,0.0363,0.0367,0.0316,0.0316,0.0317,0,0.0139,0.0118,0.0111,0.0108,0.0101,0.0108,0.0102,0.0114,0.0127,0.012,0.0151,0.0201,0.0243,0.0266,0.0294,0.0314,0.0324,0.0283,0.0322,0.0322,0.0323,0.0365,0.0369,0.0317,0.0317,0.0317,0.0317,0,0.0136,0.0123,0.0122,0.0115,0.0108,0.0102,0.0111,0.0111,0.0129,0.0131,0.0157,0.0213,0.0228,0.0271,0.0299,0.0322,0.0332,0.0331,0.0305,0.0325,0.037,0.0374,0.0319,0.0319,0.0318,0.0318,0,0,0.0154,0.0124,0.0125,0.01,0.0103,0.0085,0.01,0.0085,0.0063,0.0113,0.0086,0.0187,0.0194,0.0214,0.0256,0.0287,0.0344,0.0308,0.0308,0.0338,0.0396,0.0444,0.0453,0.0342,0.0342,0.0342,0.0438,0,0.0154,0.0125,0.0116,0.0089,0.0069,0.0063,0.0058,0.0049,0.0051,0.003,0.0088,0.0099,0.0179,0.0187,0.0233,0.0294,0.0349,0.0318,0.0379,0.0381,0.0411,0.0457,0.0342,0.0441,0.0442,0.0443,0.0444,0,0.0157,0.0125,0.0092,0.0028,0.0019,0.0008,-0.0047,-0.005,-0.0064,-0.0063,-0.0048,-0.0019,0.004,0.0105,0.0225,0.0196,0.03,0.0366,0.0371,0.0401,0.0435,0.0409,0.0451,0.0451,0.045,0.045,0.0449,0,0.0144,0.0103,0.006,0.0047,-0.0004,-0.0032,-0.0057,-0.0083,-0.0109,-0.0129,-0.0151,-0.01,-0.0067,0.0039,0.0212,0.0204,0.0346,0.0348,0.0498,0.0504,0.0421,0.0419,0.0448,0.0448,0.0447,0.0447,0.0447,0,0.0132,0.0099,0.0044,0.0019,-0.0049,-0.0071,-0.0139,-0.0158,-0.0197,-0.0226,-0.0199,-0.0192,-0.0082,0.0017,0.0166,0.0354,0.0322,0.0497,0.0527,0.0433,0.0431,0.0427,0.0423,0.0451,0.045,0.0449,0.0449,0,0.0131,0.01,0.0043,-0.0028,-0.0054,-0.01,-0.0179,-0.0228,-0.0254,-0.0294,-0.0297,-0.0263,-0.0128,0.0016,0.0196,0.0309,0.0474,0.0565,0.0474,0.0497,0.0627,0.0623,0.0695,0.0697,0.0699,0.0701,0.0703,0,0.0126,0.0099,0.0015,-0.0025,-0.0056,-0.013,-0.0181,-0.0239,-0.0282,-0.0306,-0.0318,-0.0231,-0.0169,0.0106,0.0261,0.0519,0.058,0.0647,0.0621,0.0628,0.065,0.0643,0.0636,0.0706,0.0706,0.0707,0.0707,0,0.0118,0.0097,0.0047,-0.0032,-0.0095,-0.0176,-0.0247,-0.0287,-0.0336,-0.0362,-0.0314,-0.0196,-0.0047,0.0135,0.0346,0.0539,0.0567,0.0668,0.0665,0.0641,0.0642,0.066,0.0651,0.0714,0.0713,0.0713,0.0712,0,0.0123,0.0091,0.0033,-0.0037,-0.0112,-0.019,-0.0244,-0.0282,-0.0325,-0.0344,-0.031,-0.0168,-0.0098,0.0153,0.0352,0.0529,0.0565,0.0601,0.0601,0.0595,0.0539,0.0524,0.0587,0,0,0,0,0,0.0131,0.0098,0.003,-0.0056,-0.0128,-0.0165,-0.0269,-0.0319,-0.0366,-0.0323,-0.0319,-0.0163,0.009,0.018,0.037,0.0391,0.0593,0.0616,0.0633,0.0753,0.0745,0.0701,0,0,0,0,0,0,0.0132,0.0085,0.004,-0.0045,-0.0089,-0.0178,-0.0236,-0.0279,-0.0264,-0.0279,-0.0145,-0.0095,0.0152,0.0016,0.0392,0.0438,0.0474,0.0729,0.0733,0.0758,0.0751,0.0744,0.0696,0,0,0,0,0]}]]